Location: Innsbruck
(47.2657°N, 11.3914°E)
Time: 07:22:02
(UTC+02:00)

Nauka - Pass Details

Date: 29 September 2021
Orbit: 418 x 423 km, 51.6° (Epoch: 18 October)

Event Time Altitude Azimuth Distance (km) Brightness Sun altitude
Rises 21:49:22 0° 293° (WNW) 2,368 ? -28.8°
Reaches altitude 10° 21:51:32 10° 286° (WNW) 1,502 ? -29.1°
Enters shadow 21:52:19 16° 281° (W) 1,203 ? -29.2°
